Location: D�rnast
(49.6426°N, 11.9755°E)
Time: 03:01:49
(UTC+00:00)

N. Korean satellite - Visible Passes

Search period start: 02 October 2022 00:00
Search period end: 12 October 2022 00:00
Orbit: 426 x 468 km, 97.3° (Epoch: 01 October)

Date Brightness Start Highest point End Pass type
(mag) Time Alt. Az. Time Alt. Az. Time Alt. Az.
02 Oct 7.8 04:14:54 10° NNE 04:18:03 42° E 04:21:10 10° S visible
03 Oct 9.6 03:39:51 10° NE 03:41:59 16° E 03:44:06 10° SE visible
04 Oct 6.4 04:35:44 10° NNE 04:39:01 81° ESE 04:42:16 10° S visible
05 Oct 8.7 04:00:06 10° NE 04:02:58 27° E 04:05:49 10° SSE visible
06 Oct 10.0 03:25:47 10° ENE 03:26:42 11° E 03:27:37 10° ESE visible
07 Oct 7.4 04:20:30 10° NNE 04:23:42 49° E 04:26:53 10° S visible
08 Oct 9.4 03:45:05 10° NE 03:47:27 18° E 03:49:49 10° SE visible
09 Oct 6.3 04:40:54 10° NNE 04:44:12 87° WNW 04:47:29 10° SSW visible
10 Oct 8.4 04:04:58 10° NNE 04:07:57 31° E 04:10:55 10° SSE visible
11 Oct 9.8 03:30:01 10° ENE 03:31:29 12° E 03:32:57 10° ESE visible
